Location: Casper
(42.8670°N, 106.3130°W)
Time: 05:07:15
(UTC-06:00)

Daily predictions for brighter satellites

Satellite Brightness Start Highest point End
(mag) Time Altitude Azimuth Time Altitude Azimuth Time Altitude Azimuth
Cosmos 2369 Rocket 4.2 03:43:29 24° NE 03:43:29 24° NE 03:45:57 10° NE
CZ-4C R/B 3.8 03:51:41 36° N 03:53:36 42° NE 04:00:57 10° ESE
Okean O Rocket 3.9 04:18:50 10° NE 04:22:13 21° E 04:23:14 20° ESE
Milstar 3 4.1 04:41:00 25° S 04:41:00 25° S 04:46:14 10° SE
USA 215 4.1 04:36:37 10° NE 04:42:26 36° NNW 04:42:44 36° NNW
Cosmos 1943 Rocket 2.2 04:47:33 73° NNE 04:47:33 73° NNE 04:52:34 10° NNE
Meteor 2-19 Rocket 4.5 04:50:59 10° N 04:57:10 79° E 05:03:19 10° SSE
USA 229 DEB 3.8 04:55:39 42° SSW 04:58:07 71° ESE 05:05:01 10° NE
USA 229 3.8 04:55:43 41° SSW 04:58:12 70° ESE 05:05:05 10° NE
Spot 3 4.5 04:53:15 10° NNE 04:58:43 84° WNW 04:58:49 83° WSW
Cosmos 2327 Rocket 4.4 04:52:53 10° N 04:59:13 80° W 05:05:36 10° S
ADEOS II 2.1 04:55:34 10° N 05:00:17 68° NNW 05:00:17 68° NNW
Cosmos 2263 4.3 05:03:50 58° NW 05:03:50 58° NW 05:08:53 10° NNE
OAO 2 Rocket 4.3 05:07:12 33° S 05:07:12 33° S 05:11:23 10° ESE
Cosmos 2184 Rocket 3.9 05:03:41 10° NNW 05:09:51 60° W 05:15:55 10° S
CENTAUR R/B 4.4 05:11:15 15° NNW 05:13:08 17° NNW 05:17:39 10° NNE
Lacrosse 5 3.2 05:13:36 26° NNW 05:13:36 26° NNW 05:17:38 10° NNE
USA 267 3.8 05:08:17 10° SSE 05:13:28 36° SW 05:13:28 36° SW
MOS 1-B 4.2 05:09:53 10° N 05:15:37 65° WNW 05:16:54 50° SW
Cosmos 2150 Rocket 3.9 05:18:53 48° SSW 05:20:23 80° WNW 05:25:44 10° NNE
Cosmos 1340 Rocket 2.9 05:22:59 64° NNW 05:22:59 64° NNW 05:26:33 10° N
Cosmos 2341 Rocket 4.3 05:16:06 10° N 05:22:30 69° E 05:28:51 10° SSE
CZ-4B R/B 4.4 05:18:56 10° N 05:20:22 22° N 05:20:22 22° N
Cosmos 2369 Rocket 3.1 05:25:18 31° NW 05:25:18 31° NW 05:29:48 10° N
Meteor 1-31 Rocket 3.7 05:21:15 10° NNE 05:24:57 47° E 05:28:37 10° S
Cosmos 1898 Rocket 3.8 05:25:33 46° WNW 05:25:33 46° WNW 05:30:24 10° N
Tiangong 2 2.1 05:27:47 42° SE 05:27:47 42° SE 05:30:07 10° ESE
Cosmos 1937 Rocket 3.5 05:27:32 48° WSW 05:28:44 60° WNW 05:34:00 10° NNE
Cosmos 1953 Rocket 3.5 05:26:39 14° S 05:30:24 85° E 05:34:45 10° N
Cosmos 1825 Rocket 3.4 05:31:21 51° SW 05:32:13 65° W 05:36:39 10° N
SJ 16-02 3.3 05:31:57 10° SSE 05:35:49 31° E 05:39:41 10° NE
CZ-3 R/B 4.2 05:24:00 26° WSW 05:36:12 37° SW 05:45:24 10° SSE
PSLV R/B 3.9 05:34:24 10° N 05:38:05 42° WNW 05:38:05 42° WNW
Cosmos 1707 2.6 05:36:31 28° SSW 05:38:29 78° W 05:42:26 10° N
Cosmos 44 3.6 05:39:52 41° WSW 05:39:52 41° WSW 05:44:17 10° S
CZ-4C R/B 3.0 05:36:58 18° NW 05:42:28 54° WSW 05:50:11 10° SSE
Cosmos 1809 Rocket 4.5 05:36:42 10° N 05:42:50 82° E 05:48:58 10° S
Cosmos 1833 4.5 05:43:00 24° NW 05:45:49 42° WSW 05:51:01 10° S
Cosmos 1295 Rocket 4.5 05:41:22 10° N 05:47:41 88° W 05:54:01 10° S
ERBS 3.9 05:46:11 18° NNW 05:48:09 31° NE 05:51:17 10° E
Meteor 2-5 Rocket 3.9 05:42:48 10° S 05:48:43 81° E 05:54:34 10° NNE
Cosmos 2219 3.4 05:44:09 10° NNW 05:49:51 72° ENE 05:55:28 10° SSE
Nadezhda 1 Rocket 4.4 05:45:41 17° SW 05:50:19 42° WNW 05:56:20 10° N
Cosmos 990 Rocket 4.4 05:51:00 30° WSW 05:52:53 40° WNW 05:57:46 10° N
CZ-2C R/B 3.7 05:51:08 10° S 05:55:53 75° WSW 06:00:38 10° NNW
Cosmos 1378 3.3 05:54:17 24° SW 05:56:14 48° W 05:59:55 10° N
PAYLOAD B 4.3 05:51:07 10° N 05:56:26 51° WNW 06:01:45 10° SW
CZ-4B R/B 4.0 05:52:14 10° N 05:56:40 76° WNW 06:01:10 10° SSW
Shenzhou-11 Module 3.3 05:56:46 26° SSW 05:56:46 26° SSW 05:59:18 10° SSE
Cosmos 44 Rocket 4.0 05:56:14 29° W 05:57:00 31° WSW 06:01:17 10° S
Okean O Rocket 2.1 05:54:38 10° N 05:58:40 37° WNW 06:00:41 24° WSW
EO 1 Del DPAF 3.5 05:56:21 10° SSE 06:00:09 70° ENE 06:03:59 10° N
USA 116 3.4 05:58:06 10° S 06:01:34 74° WSW 06:05:31 10° NNW
Cosmos 2297 Rocket 4.0 05:58:12 10° N 06:03:11 31° NE 06:08:09 10° ESE
MTI 3.7 06:00:27 10° SSE 06:03:41 85° WSW 06:06:58 10° NNW
Cosmos 1356 Rocket 3.4 05:59:27 10° SSW 06:03:42 71° W 06:08:02 10° N
Cosmos 1048 Rocket 4.1 06:00:40 10° NNW 06:05:52 79° ENE 06:11:05 10° SSE
GPS 2-04 Rocket1 4.3 06:05:03 17° SW 06:06:14 20° SSW 06:08:58 10° SSE
Meteor 2-21 Rocket 4.4 06:00:11 10° N 06:06:17 86° W 06:12:22 10° S
DEBRIS 4.2 06:00:40 19° W 06:07:31 54° NNW 06:11:02 10° ENE
Okean-O 2.9 06:06:08 10° NNE 06:10:35 73° ESE 06:15:00 10° S
Meteor 1-16 Rocket 4.3 06:08:17 10° NNW 06:13:48 59° W 06:19:28 10° S
Cosmos 1656 Rocket 4.1 06:10:29 11° SW 06:15:34 43° WNW 06:20:58 10° NNE
Cosmos 1758 Rocket 4.4 06:13:31 10° SW 06:17:24 29° WNW 06:21:20 10° NNW
APEX 4.2 06:15:49 20° WNW 06:17:32 28° WSW 06:21:22 10° S
In-Cosmos 22 4.4 06:13:23 10° S 06:18:57 78° E 06:24:42 10° NNE
Landsat 4 4.3 06:15:32 10° SSW 06:19:00 34° W 06:22:28 10° NNW
Cosmos 2366 rocket 4.0 06:13:12 10° N 06:19:22 88° E 06:25:32 10° S
Cosmos-2242 3.4 06:18:03 10° NNW 06:22:04 40° W 06:26:04 10° SSW
CZ-4B R/B 3.8 06:18:49 10° N 06:23:41 35° WNW 06:28:37 10° SW
USA 81 4.1 06:19:09 10° SSW 06:24:22 60° W 06:29:36 10° N
Cosmos 158 Rocket 4.2 06:24:55 10° NNW 06:30:09 53° WSW 06:35:23 10° S
CZ-2C R/B 3.5 06:25:40 10° NNE 06:30:28 49° E 06:35:22 10° S
Cosmos 1943 Rocket 3.7 06:29:08 13° WNW 06:31:31 17° NW 06:35:00 10° N
Meteor 1-28 Rocket 3.8 06:28:41 10° SSW 06:32:11 35° W 06:35:44 10° NNW
COSMO-SKYMED 1 2.5 06:29:13 10° S 06:33:31 66° WSW 06:37:51 10° NNW
SL-8 Rocket 4.1 06:27:30 10° NNW 06:33:38 55° W 06:39:45 10° SSW
ADEOS II 3.9 06:38:17 10° NW 06:39:39 11° NW 06:41:00 10° WNW
BREEZE-M DEB (TANK) 4.0 06:38:02 11° W 06:42:00 64° NNW 06:57:54 10° ENE
Cosmos 1356 3.7 06:41:00 10° SSW 06:44:22 45° WNW 06:47:44 10° N
NOSS 3-1 (C) 3.8 06:42:42 10° WSW 06:48:18 47° NW 06:54:38 10° NNE
Cosmos 1842 Rocket 3.7 06:45:07 10° NNW 06:49:21 50° W 06:53:32 10° SSW
Cosmos 1269 Rocket 4.2 06:44:50 10° NNW 06:49:57 50° WSW 06:55:03 10° S
NOSS 3-1 (A) 3.5 06:47:28 10° SW 06:53:11 58° NW 06:59:41 10° NNE
Cosmos 2221 2.8 06:49:38 10° N 06:54:03 79° E 06:58:26 10° S
Cosmos 2278 4.3 06:49:00 10° S 06:54:33 63° ESE 07:00:08 10° NNE
IDEFIX/ARIANE 42P 2.6 06:49:29 10° N 06:54:46 78° WNW 06:59:58 10° SSW
Cosmos 2218 Rocket 4.3 06:50:41 10° NNW 06:56:30 43° W 07:02:22 10° SSW
Meteor 1-24 Rocket 4.2 06:51:27 10° SSW 06:57:12 45° WNW 07:02:54 10° N
